SCP
0 0 -0 0 -0 -0 0 0 0 0 0 0 0 1 0 1 0 0 0 0 0 0 0 0 0 0 0 1 1 1 0 0 0 0 0 0 0 0 1 1 1 1 2 2
0 0 0 -0 -0 -0 -0 -0 0 0 0 1 1 1 0 0 0 0 0 0 0 0 0 0 0 0 0 1 1 1 0 0 0 1 1 0 1 1 1 1 1 1 1 2
0 0 -0 -0 -0 -0 -0 -0 0 0 0 0 0 0 0 0 0 0 0 0 0 0 0 0 2 1 1 0 0 0 0 0 0 1 1 1 1 1 1 1 1 1 1 1
0 0 0 -0 -0 -0 0 -0 0 0 1 1 1 0 0 0 0 0 0 0 0 0 0 0 0 1 2 1 0 1 1 1 1 1 1 1 1 1 1 1 1 1 1 1
0 0 0 -0 0 -0 0 -0 0 0 1 1 0 0 0 0 0 0 0 0 0 0 0 0 0 0 1 1 2 2 1 1 1 1 2 1 1 1 1 1 1 1 1 1
0 0 0 -0 0 0 0 -0 -0 0 1 0 0 0 0 0 0 0 0 0 0 0 0 0 0 0 0 0 1 0 0 0 1 0 0 0 1 1 1 1 1 1 1 0
0 0 0 0 0 0 -0 -0 -0 0 0 0 0 0 0 0 0 0 0 0 0 0 0 0 0 0 0 0 0 0 0 0 0 0 0 0 -0 0 0 1 0 0 0 0
0 0 0 0 0 -0 0 0 -0 -0 0 0 0 0 0 0 0 0 0 0 0 0 0 0 0 0 0 0 0 0 0 0 0 0 0 0 0 0 0 0 0 -0 -0 0
0 0 0 0 0 0 0 -0 -0 -0 -0 -0 0 0 0 0 0 0 0 0 0 0 0 0 0 0 0 0 0 0 0 0 0 0 0 0 0 0 0 0 0 0 -0 -0
0 0 0 0 0 0 0 0 -0 -0 -0 0 0 0 0 0 0 0 0 0 0 0 0 0 0 0 0 0 0 0 0 0 0 0 0 0 0 0 0 0 0 0 0 0
0 0 0 0 0 0 0 0 -0 -0 0 0 0 0 0 0 0 0 0 0 0 0 0 0 0 0 0 0 0 0 0 0 0 0 0 0 0 0 0 0 0 0 0 0
-0 0 0 0 0 0 0 0 0 0 0 0 0 0 0 0 0 0 0 0 0 0 0 0 0 0 0 0 0 0 0 0 0 0 0 0 0 0 0 0 0 0 0 0
-0 0 0 0 0 0 0 0 0 0 0 0 0 0 0 0 0 0 0 0 0 0 0 0 0 0 0 0 0 0 0 0 0 0 0 0 0 0 0 0 0 0 0 0
-0 0 -0 0 0 0 0 0 0 0 0 0 0 0 0 0 0 0 0 0 0 0 0 0 0 0 0 0 0 0 0 0 0 0 0 0 0 0 0 0 0 0 0 0
-0 -0 0 -0 0 0 0 0 0 0 0 0 0 0 0 0 0 0 0 0 0 0 0 0 0 0 0 0 0 0 0 0 0 0 0 0 0 0 0 0 0 0 0 0
0 -0 -0 0 0 0 0 -0 0 0 0 0 0 0 0 0 0 0 0 0 0 0 0 0 0 0 0 0 0 0 0 0 0 0 0 0 0 0 0 0 0 0 0 0
0 -0 0 -0 -0 -0 0 0 0 0 0 0 0 0 0 0 0 0 0 0 0 0 0 0 0 0 0 0 0 0 0 0 0 0 0 0 0 0 0 0 0 0 0 0
0 0 0 0 0 0 0 0 0 0 0 0 0 0 0 0 0 0 0 0 0 0 0 0 0 0 0 0 0 0 0 0 0 0 0 0 0 0 0 0 0 0 0 0
0 -0 0 -0 -0 0 0 0 0 0 0 0 0 0 0 0 0 0 0 0 0 0 0 -0 -0 -0 0 0 0 0 0 0 0 0 0 0 0 0 0 0 0 0 0 0
0 0 -0 -0 -0 -0 0 0 0 0 0 0 0 0 0 0 0 0 0 0 0 0 0 -0 -0 -0 -0 0 0 0 0 0 0 0 0 0 0 0 0 0 0 0 0 0
-0 0 0 0 0 0 0 0 0 0 0 0 0 0 0 0 0 0 0 0 0 0 0 0 0 -0 -0 0 0 0 0 0 0 0 0 0 0 0 0 0 0 0 0 0
0 0 0 0 0 0 0 0 0 0 0 0 0 0 0 0 0 0 0 0 0 0 0 0 0 -0 0 0 0 0 0 0 0 0 0 0 0 0 0 0 0 0 0 0
0 0 0 0 0 0 0 0 0 0 0 0 0 0 0 0 0 0 -0 -0 0 0 0 0 -0 -0 -0 0 0 0 0 0 0 0 0 0 0 0 0 0 0 0 0 0
0 0 0 0 0 0 0 0 0 0 0 0 0 0 0 0 0 0 0 0 0 0 0 0 0 -0 -0 0 0 0 0 0 0 0 0 0 0 0 0 0 0 0 0 0
0 0 0 0 0 0 0 -0 -0 -0 0 0 0 0 0 0 0 0 0 0 0 0 0 0 0 0 0 0 0 0 0 0 0 0 0 0 0 0 0 0 0 0 0 0
0 0 0 0 0 -0 0 0 0 0 0 0 0 0 0 0 0 0 0 0 0 0 0 0 0 0 0 0 0 0 0 0 0 0 0 0 0 0 0 0 0 0 0 0
0 0 0 0 0 0 0 0 0 0 0 0 0 0 0 0 0 0 0 0 0 0 0 0 0 0 0 0 0 0 0 0 0 0 0 0 0 0 0 0 0 0 0 0
Wind_Speed_500mb
15 22 15 21 29 27 24 25 15 35 29 22 16 25 8 6 61 39 23 21 11 27 52 79 100 92 105 103 97 96 91 87 79 70 73 76 79 82 86 84 82 71 64 60
13 19 14 30 30 19 12 22 12 18 5 9 4 63 35 9 17 50 37 26 16 4 12 77 96 96 85 96 100 96 92 87 76 70 67 67 73 76 78 81 87 81 75 70
17 13 29 25 5 6 12 16 17 11 14 14 7 16 25 29 25 21 25 24 22 24 5 45 91 100 102 96 94 98 91 87 83 78 74 65 59 66 68 69 69 75 85 80
17 6 14 14 4 5 19 26 30 31 20 14 10 30 38 27 38 30 31 31 24 30 3 28 58 79 95 93 92 92 93 91 86 82 78 73 67 61 62 65 63 62 64 73
8 10 25 25 18 4 10 14 36 33 10 15 15 25 41 37 33 26 25 31 23 20 15 10 19 33 33 53 61 75 77 78 79 81 78 75 73 68 63 62 64 64 61 62
3 5 8 7 24 32 28 4 36 48 34 8 27 8 5 26 32 37 30 31 25 29 27 8 13 19 33 44 37 26 51 56 42 37 53 63 64 67 66 65 62 60 60 65
7 9 13 11 52 40 8 8 22 32 25 37 18 10 17 28 32 30 31 31 30 20 28 31 30 21 15 26 27 44 29 46 40 60 61 52 60 68 67 62 58 30 27 17
6 7 14 25 15 8 5 2 32 33 23 26 32 25 31 30 33 36 37 37 31 29 24 35 40 28 33 34 25 24 23 17 21 37 47 23 58 51 34 22 34 33 21 48
10 7 7 8 2 16 17 21 14 26 14 18 26 26 29 24 31 35 35 37 36 37 36 34 34 33 30 27 12 8 7 11 10 6 7 10 16 14 10 10 13 22 20 29
4 3 9 14 7 9 12 12 27 31 25 32 20 37 43 39 39 37 34 35 33 34 35 36 30 29 34 29 13 16 17 13 8 11 11 12 13 9 11 12 19 16 14 20
9 19 26 25 2 8 11 9 25 33 35 38 34 29 39 38 33 26 27 26 30 33 37 40 37 29 29 31 34 31 26 23 14 18 28 22 15 16 15 10 4 5 11 6
8 15 19 16 20 2 14 15 22 41 42 31 34 36 28 30 34 30 27 25 27 26 25 31 36 37 33 24 19 18 22 31 40 22 19 24 23 22 22 26 28 24 17 11
17 27 17 16 5 18 17 12 16 32 42 51 38 42 40 38 20 18 15 22 17 16 13 14 13 16 20 22 22 18 17 18 17 23 25 19 14 14 18 16 17 20 15 13
7 17 12 8 16 37 30 28 31 36 36 46 45 39 34 27 19 14 15 11 8 10 7 9 7 9 12 12 10 12 12 12 12 10 14 19 13 11 12 10 9 11 9 9
15 20 17 12 20 26 33 24 17 21 24 31 26 29 22 19 15 12 7 2 2 3 3 5 8 7 5 7 11 12 11 9 9 8 7 12 14 11 10 10 10 10 14 18
4 13 17 22 25 24 24 22 24 21 17 17 18 14 12 11 8 6 8 9 8 11 17 17 17 20 21 20 16 12 13 17 16 15 11 10 15 16 18 12 15 14 18 15
8 17 24 24 27 27 27 24 17 14 17 14 14 8 6 9 7 9 15 18 18 21 29 32 30 25 23 24 22 23 23 20 23 27 25 23 23 25 25 21 24 30 34 34
6 5 6 16 27 27 32 23 22 17 15 14 10 13 18 17 18 18 14 14 20 26 33 38 41 35 26 23 21 22 26 30 31 31 35 36 30 28 27 28 28 33 29 28
4 7 21 26 27 27 27 22 10 9 14 10 10 12 9 10 17 13 11 15 19 21 24 35 41 38 29 26 26 25 26 26 29 36 41 45 48 50 50 40 33 30 41 42
15 14 11 16 17 14 16 8 4 7 8 7 3 3 5 9 13 13 14 16 21 20 21 27 31 34 28 30 36 39 27 24 27 31 35 38 38 38 39 26 27 17 9 28
11 24 19 14 11 11 9 6 8 6 7 8 11 10 13 14 13 16 20 25 17 26 23 24 25 29 16 22 30 36 35 36 35 27 27 31 29 26 24 17 17 22 14 3
20 19 16 15 15 16 13 13 15 15 18 20 22 19 20 24 24 24 25 26 16 26 20 22 24 26 13 20 26 30 34 35 34 36 39 28 27 30 24 24 30 32 34 37
25 22 23 21 18 14 14 16 17 19 23 24 25 26 27 28 26 26 22 12 28 22 18 17 20 14 11 21 26 31 33 33 34 34 31 28 25 21 25 29 27 27 32 37
19 24 22 20 20 19 21 22 23 25 29 30 34 36 37 39 36 29 24 25 30 17 19 19 26 20 19 25 31 33 32 28 29 32 33 37 39 36 37 34 25 23 33 38
14 16 22 20 23 25 26 30 31 34 34 33 34 36 40 45 50 41 40 37 32 33 37 37 30 26 29 29 33 42 45 47 44 39 39 36 35 33 33 33 34 35 40 43
16 20 22 25 30 27 22 25 31 36 39 37 38 45 39 29 23 24 30 33 37 36 31 34 33 35 39 43 41 39 38 39 40 40 37 39 43 41 39 39 41 42 43 44
15 20 25 32 36 32 31 34 35 38 40 28 25 18 24 21 29 30 19 26 19 36 41 30 34 34 34 34 37 35 40 40 39 43 45 49 48 47 48 48 50 49 50 49
Wind_Direction_500mb
298 298 291 304 313 316 312 275 232 289 298 267 137 143 123 189 128 109 116 111 169 233 228 206 201 203 215 219 219 218 216 217 219 220 221 221 224 225 227 229 231 237 237 239
284 298 314 309 301 292 343 345 328 296 283 11 61 121 114 92 59 106 108 87 73 314 271 207 207 204 208 220 222 221 220 222 221 217 221 224 225 226 227 230 231 233 235 239
269 14 330 299 292 337 271 49 331 313 332 159 39 83 105 124 147 141 77 126 104 37 356 197 206 210 212 218 223 223 222 224 224 223 224 225 227 227 228 230 231 233 235 239
267 346 263 252 296 40 341 32 4 342 10 36 28 84 85 113 113 115 107 87 152 267 193 172 189 196 209 212 217 223 224 226 229 230 230 233 232 234 234 233 234 231 232 235
200 198 270 301 291 316 62 25 354 336 16 54 53 29 38 54 72 81 78 103 93 166 302 313 165 141 179 202 209 215 217 222 228 234 235 238 241 243 242 240 238 237 239 238
159 188 261 292 331 327 295 330 2 1 8 331 11 73 351 52 68 68 68 76 80 107 187 327 41 129 149 143 130 159 208 216 215 245 252 246 245 249 252 249 248 244 245 248
264 222 263 339 316 313 162 213 43 359 23 47 59 74 91 70 72 79 77 71 69 79 80 66 66 95 177 192 226 290 235 234 238 257 258 307 268 249 239 241 242 207 187 347
306 202 254 4 1 34 320 232 92 15 28 65 92 92 87 84 83 77 79 83 77 80 67 66 66 76 92 111 134 178 188 191 206 230 249 244 256 255 257 264 231 324 313 278
191 249 318 10 158 311 317 294 134 123 99 102 113 86 84 94 87 82 81 79 80 73 69 62 64 69 78 69 71 66 87 101 123 140 184 202 228 229 223 221 250 191 187 187
28 285 273 311 336 230 282 260 127 127 122 107 51 88 93 91 92 85 83 79 72 67 62 57 57 64 79 81 83 92 88 82 78 88 93 112 124 107 103 129 135 186 193 258
255 279 287 272 212 168 246 235 158 148 134 129 124 97 98 92 84 87 76 66 54 52 51 51 56 70 81 88 89 102 89 70 64 76 76 68 59 58 61 46 65 249 221 210
229 282 247 263 282 220 255 239 168 134 125 136 136 123 105 96 96 93 86 70 61 52 50 56 51 55 51 57 71 74 83 78 72 89 87 65 65 60 68 67 70 66 54 83
242 249 277 295 180 94 70 170 147 131 129 120 116 111 121 121 108 110 107 100 67 61 53 60 61 64 71 69 55 57 85 89 80 67 70 89 79 64 55 55 57 44 57 65
203 223 246 162 105 93 99 96 103 109 111 114 112 120 120 125 138 144 127 123 162 185 143 89 83 61 40 27 45 57 45 44 83 75 28 16 359 343 335 311 302 315 294 273
247 262 313 146 128 115 112 113 111 90 95 104 116 118 126 125 115 98 100 152 268 297 330 303 293 295 331 8 0 356 357 348 353 354 13 1 353 327 324 329 329 315 305 275
238 146 111 127 137 115 114 127 119 108 92 84 83 92 106 102 90 40 13 12 0 17 5 343 322 306 301 294 291 305 312 315 306 317 294 289 308 313 284 312 286 281 289 301
267 196 182 168 152 152 140 143 128 119 114 111 100 83 31 33 35 49 40 29 41 46 31 15 2 347 332 314 303 287 284 282 283 288 292 289 292 306 322 289 268 280 293 289
148 166 155 153 169 155 144 138 119 107 112 114 109 88 72 52 50 43 27 36 60 46 34 27 19 8 351 336 323 301 286 276 276 278 277 279 279 281 308 324 304 274 273 289
157 142 119 127 135 136 140 140 122 123 128 135 79 64 50 36 16 26 20 9 16 4 13 18 16 10 12 12 359 333 310 296 276 271 276 280 284 286 290 296 314 297 260 266
201 172 150 122 131 140 140 124 51 107 134 167 195 243 308 315 345 344 335 326 327 321 331 353 359 4 9 19 26 20 355 324 308 299 291 289 290 294 297 291 285 328 328 253
188 176 180 180 148 157 168 182 192 220 280 274 278 285 271 286 298 312 314 315 313 312 299 319 333 348 348 7 9 8 13 22 17 350 308 299 298 299 290 291 294 275 291 96
187 187 193 200 213 223 228 230 213 240 240 246 263 277 282 290 300 306 301 299 298 314 300 295 312 328 311 332 340 350 349 346 348 360 11 351 313 304 304 304 292 287 289 284
215 222 227 225 228 239 247 242 244 259 263 265 270 275 282 296 296 292 287 293 301 295 297 304 325 312 303 320 324 323 326 334 340 340 339 338 343 343 336 319 313 318 299 296
218 217 221 229 231 238 252 259 263 269 275 277 278 279 282 285 287 291 281 289 295 289 278 299 310 300 294 303 312 316 317 320 317 319 323 327 322 313 312 314 318 312 304 302
234 228 222 227 240 243 258 267 274 276 276 274 276 281 284 285 281 290 288 280 279 289 282 282 285 292 293 299 306 313 310 302 302 303 306 305 309 309 307 306 302 297 297 298
237 234 241 249 257 263 257 252 267 280 287 291 294 288 289 266 266 288 264 259 262 267 278 273 284 289 293 295 300 303 304 308 311 301 295 296 301 297 300 295 293 291 288 293
247 253 251 247 253 260 262 270 278 287 284 283 279 274 257 269 307 306 307 284 274 253 267 280 270 278 294 296 301 304 306 306 303 303 301 299 295 294 299 295 289 284 284 282
Wind_Speed_850mb
15 22 15 21 29 27 24 25 15 35 29 22 16 25 8 6 61 39 23 21 11 27 52 79 100 92 105 103 97 96 91 87 79 70 73 76 79 82 86 84 82 71 64 60
13 19 14 30 30 19 12 22 12 18 5 9 4 63 35 9 17 50 37 26 16 4 12 77 96 96 85 96 100 96 92 87 76 70 67 67 73 76 78 81 87 81 75 70
17 13 29 25 5 6 12 16 17 11 14 14 7 16 25 29 25 21 25 24 22 24 5 45 91 100 102 96 94 98 91 87 83 78 74 65 59 66 68 69 69 75 85 80
17 6 14 14 4 5 19 26 30 31 20 14 10 30 38 27 38 30 31 31 24 30 3 28 58 79 95 93 92 92 93 91 86 82 78 73 67 61 62 65 63 62 64 73
8 10 25 25 18 4 10 14 36 33 10 15 15 25 41 37 33 26 25 31 23 20 15 10 19 33 33 53 61 75 77 78 79 81 78 75 73 68 63 62 64 64 61 62
3 5 8 7 24 32 28 4 36 48 34 8 27 8 5 26 32 37 30 31 25 29 27 8 13 19 33 44 37 26 51 56 42 37 53 63 64 67 66 65 62 60 60 65
7 9 13 11 52 40 8 8 22 32 25 37 18 10 17 28 32 30 31 31 30 20 28 31 30 21 15 26 27 44 29 46 40 60 61 52 60 68 67 62 58 30 27 17
6 7 14 25 15 8 5 2 32 33 23 26 32 25 31 30 33 36 37 37 31 29 24 35 40 28 33 34 25 24 23 17 21 37 47 23 58 51 34 22 34 33 21 48
10 7 7 8 2 16 17 21 14 26 14 18 26 26 29 24 31 35 35 37 36 37 36 34 34 33 30 27 12 8 7 11 10 6 7 10 16 14 10 10 13 22 20 29
4 3 9 14 7 9 12 12 27 31 25 32 20 37 43 39 39 37 34 35 33 34 35 36 30 29 34 29 13 16 17 13 8 11 11 12 13 9 11 12 19 16 14 20
9 19 26 25 2 8 11 9 25 33 35 38 34 29 39 38 33 26 27 26 30 33 37 40 37 29 29 31 34 31 26 23 14 18 28 22 15 16 15 10 4 5 11 6
8 15 19 16 20 2 14 15 22 41 42 31 34 36 28 30 34 30 27 25 27 26 25 31 36 37 33 24 19 18 22 31 40 22 19 24 23 22 22 26 28 24 17 11
17 27 17 16 5 18 17 12 16 32 42 51 38 42 40 38 20 18 15 22 17 16 13 14 13 16 20 22 22 18 17 18 17 23 25 19 14 14 18 16 17 20 15 13
7 17 12 8 16 37 30 28 31 36 36 46 45 39 34 27 19 14 15 11 8 10 7 9 7 9 12 12 10 12 12 12 12 10 14 19 13 11 12 10 9 11 9 9
15 20 17 12 20 26 33 24 17 21 24 31 26 29 22 19 15 12 7 2 2 3 3 5 8 7 5 7 11 12 11 9 9 8 7 12 14 11 10 10 10 10 14 18
4 13 17 22 25 24 24 22 24 21 17 17 18 14 12 11 8 6 8 9 8 11 17 17 17 20 21 20 16 12 13 17 16 15 11 10 15 16 18 12 15 14 18 15
8 17 24 24 27 27 27 24 17 14 17 14 14 8 6 9 7 9 15 18 18 21 29 32 30 25 23 24 22 23 23 20 23 27 25 23 23 25 25 21 24 30 34 34
6 5 6 16 27 27 32 23 22 17 15 14 10 13 18 17 18 18 14 14 20 26 33 38 41 35 26 23 21 22 26 30 31 31 35 36 30 28 27 28 28 33 29 28
4 7 21 26 27 27 27 22 10 9 14 10 10 12 9 10 17 13 11 15 19 21 24 35 41 38 29 26 26 25 26 26 29 36 41 45 48 50 50 40 33 30 41 42
15 14 11 16 17 14 16 8 4 7 8 7 3 3 5 9 13 13 14 16 21 20 21 27 31 34 28 30 36 39 27 24 27 31 35 38 38 38 39 26 27 17 9 28
11 24 19 14 11 11 9 6 8 6 7 8 11 10 13 14 13 16 20 25 17 26 23 24 25 29 16 22 30 36 35 36 35 27 27 31 29 26 24 17 17 22 14 3
20 19 16 15 15 16 13 13 15 15 18 20 22 19 20 24 24 24 25 26 16 26 20 22 24 26 13 20 26 30 34 35 34 36 39 28 27 30 24 24 30 32 34 37
25 22 23 21 18 14 14 16 17 19 23 24 25 26 27 28 26 26 22 12 28 22 18 17 20 14 11 21 26 31 33 33 34 34 31 28 25 21 25 29 27 27 32 37
19 24 22 20 20 19 21 22 23 25 29 30 34 36 37 39 36 29 24 25 30 17 19 19 26 20 19 25 31 33 32 28 29 32 33 37 39 36 37 34 25 23 33 38
14 16 22 20 23 25 26 30 31 34 34 33 34 36 40 45 50 41 40 37 32 33 37 37 30 26 29 29 33 42 45 47 44 39 39 36 35 33 33 33 34 35 40 43
16 20 22 25 30 27 22 25 31 36 39 37 38 45 39 29 23 24 30 33 37 36 31 34 33 35 39 43 41 39 38 39 40 40 37 39 43 41 39 39 41 42 43 44
15 20 25 32 36 32 31 34 35 38 40 28 25 18 24 21 29 30 19 26 19 36 41 30 34 34 34 34 37 35 40 40 39 43 45 49 48 47 48 48 50 49 50 49
Wind_Direction_850mb
298 298 291 304 313 316 312 275 232 289 298 267 137 143 123 189 128 109 116 111 169 233 228 206 201 203 215 219 219 218 216 217 219 220 221 221 224 225 227 229 231 237 237 239
284 298 314 309 301 292 343 345 328 296 283 11 61 121 114 92 59 106 108 87 73 314 271 207 207 204 208 220 222 221 220 222 221 217 221 224 225 226 227 230 231 233 235 239
269 14 330 299 292 337 271 49 331 313 332 159 39 83 105 124 147 141 77 126 104 37 356 197 206 210 212 218 223 223 222 224 224 223 224 225 227 227 228 230 231 233 235 239
267 346 263 252 296 40 341 32 4 342 10 36 28 84 85 113 113 115 107 87 152 267 193 172 189 196 209 212 217 223 224 226 229 230 230 233 232 234 234 233 234 231 232 235
200 198 270 301 291 316 62 25 354 336 16 54 53 29 38 54 72 81 78 103 93 166 302 313 165 141 179 202 209 215 217 222 228 234 235 238 241 243 242 240 238 237 239 238
159 188 261 292 331 327 295 330 2 1 8 331 11 73 351 52 68 68 68 76 80 107 187 327 41 129 149 143 130 159 208 216 215 245 252 246 245 249 252 249 248 244 245 248
264 222 263 339 316 313 162 213 43 359 23 47 59 74 91 70 72 79 77 71 69 79 80 66 66 95 177 192 226 290 235 234 238 257 258 307 268 249 239 241 242 207 187 347
306 202 254 4 1 34 320 232 92 15 28 65 92 92 87 84 83 77 79 83 77 80 67 66 66 76 92 111 134 178 188 191 206 230 249 244 256 255 257 264 231 324 313 278
191 249 318 10 158 311 317 294 134 123 99 102 113 86 84 94 87 82 81 79 80 73 69 62 64 69 78 69 71 66 87 101 123 140 184 202 228 229 223 221 250 191 187 187
28 285 273 311 336 230 282 260 127 127 122 107 51 88 93 91 92 85 83 79 72 67 62 57 57 64 79 81 83 92 88 82 78 88 93 112 124 107 103 129 135 186 193 258
255 279 287 272 212 168 246 235 158 148 134 129 124 97 98 92 84 87 76 66 54 52 51 51 56 70 81 88 89 102 89 70 64 76 76 68 59 58 61 46 65 249 221 210
229 282 247 263 282 220 255 239 168 134 125 136 136 123 105 96 96 93 86 70 61 52 50 56 51 55 51 57 71 74 83 78 72 89 87 65 65 60 68 67 70 66 54 83
242 249 277 295 180 94 70 170 147 131 129 120 116 111 121 121 108 110 107 100 67 61 53 60 61 64 71 69 55 57 85 89 80 67 70 89 79 64 55 55 57 44 57 65
203 223 246 162 105 93 99 96 103 109 111 114 112 120 120 125 138 144 127 123 162 185 143 89 83 61 40 27 45 57 45 44 83 75 28 16 359 343 335 311 302 315 294 273
247 262 313 146 128 115 112 113 111 90 95 104 116 118 126 125 115 98 100 152 268 297 330 303 293 295 331 8 0 356 357 348 353 354 13 1 353 327 324 329 329 315 305 275
238 146 111 127 137 115 114 127 119 108 92 84 83 92 106 102 90 40 13 12 0 17 5 343 322 306 301 294 291 305 312 315 306 317 294 289 308 313 284 312 286 281 289 301
267 196 182 168 152 152 140 143 128 119 114 111 100 83 31 33 35 49 40 29 41 46 31 15 2 347 332 314 303 287 284 282 283 288 292 289 292 306 322 289 268 280 293 289
148 166 155 153 169 155 144 138 119 107 112 114 109 88 72 52 50 43 27 36 60 46 34 27 19 8 351 336 323 301 286 276 276 278 277 279 279 281 308 324 304 274 273 289
157 142 119 127 135 136 140 140 122 123 128 135 79 64 50 36 16 26 20 9 16 4 13 18 16 10 12 12 359 333 310 296 276 271 276 280 284 286 290 296 314 297 260 266
201 172 150 122 131 140 140 124 51 107 134 167 195 243 308 315 345 344 335 326 327 321 331 353 359 4 9 19 26 20 355 324 308 299 291 289 290 294 297 291 285 328 328 253
188 176 180 180 148 157 168 182 192 220 280 274 278 285 271 286 298 312 314 315 313 312 299 319 333 348 348 7 9 8 13 22 17 350 308 299 298 299 290 291 294 275 291 96
187 187 193 200 213 223 228 230 213 240 240 246 263 277 282 290 300 306 301 299 298 314 300 295 312 328 311 332 340 350 349 346 348 360 11 351 313 304 304 304 292 287 289 284
215 222 227 225 228 239 247 242 244 259 263 265 270 275 282 296 296 292 287 293 301 295 297 304 325 312 303 320 324 323 326 334 340 340 339 338 343 343 336 319 313 318 299 296
218 217 221 229 231 238 252 259 263 269 275 277 278 279 282 285 287 291 281 289 295 289 278 299 310 300 294 303 312 316 317 320 317 319 323 327 322 313 312 314 318 312 304 302
234 228 222 227 240 243 258 267 274 276 276 274 276 281 284 285 281 290 288 280 279 289 282 282 285 292 293 299 306 313 310 302 302 303 306 305 309 309 307 306 302 297 297 298
237 234 241 249 257 263 257 252 267 280 287 291 294 288 289 266 266 288 264 259 262 267 278 273 284 289 293 295 300 303 304 308 311 301 295 296 301 297 300 295 293 291 288 293
247 253 251 247 253 260 262 270 278 287 284 283 279 274 257 269 307 306 307 284 274 253 267 280 270 278 294 296 301 304 306 306 303 303 301 299 295 294 299 295 289 284 284 282